Glasgow, KY

4:46 PM CDT on June 22, 2017 (GMT -0500)
Glasgow Municipal

Weather History for KGLW - November, 2013

Change the Weather History Date:

Saturday, November 16, 2013

  Actual Average Record
Temperature  
Mean Temperature 55 °F -  
Max Temperature 63 °F 57 °F 76 °F (1964)
Min Temperature 47 °F 37 °F 21 °F (1967)
Degree Days  
Heating Degree Days 10    
Growing Degree Days 5 (Base 50)    
Moisture  
Dew Point 53 °F    
Average Humidity 91    
Maximum Humidity 100    
Minimum Humidity 77    
Precipitation  
Precipitation 0.01 in - - ()
Sea Level Pressure  
Sea Level Pressure 30.05 in    
Wind  
Wind Speed 6 mph (South)    
Max Wind Speed 13 mph    
Max Gust Speed 22 mph    
Visibility 7 miles    
Events Fog    
Averages and records for this station are not official NWS values.
T = Trace of Precipitation, MM = Missing Value Source: NWS Daily Summary

Daily Weather History Graph

Daily Weather History Graph

Search for Another Location

Airport or City:

Trip Planner

Search our weather history database for the weather conditions in past years. The results will help you decide how hot, cold, wet, or windy it might be!

Date:

Astronomy

Nov. 16, 2013 Rise Set
Actual Time 6:23 AM CST 4:33 PM CST
Civil Twilight 5:55 AM CST 5:00 PM CST
Nautical Twilight 5:24 AM CST 5:32 PM CST
Astronomical Twilight 4:53 AM CST 6:03 PM CST
Moon 4:07 PM CST (11/16) 5:20 AM CST (11/16)
Length of Visible Light 11h 05m
Length of Day
10h 09m
Waxing Gibbous, 99% of the Moon is Illuminated
Nov 16
Waxing Gibbous
Nov 17
Full
Nov 25
Last Quarter
Dec 2
New
Dec 9
First Quarter

Hourly Weather History & Observations

Time (CST) Temp. Dew Point Humidity Pressure Visibility Wind Dir Wind Speed Gust Speed Precip Events Conditions
12:15 AM 47.8 °F 47.8 °F 100% 30.10 in 7.0 mi South 4.6 mph - N/A   Clear
12:35 AM 48.0 °F 48.0 °F 100% 30.10 in 7.0 mi South 4.6 mph - N/A   Clear
12:55 AM 47.7 °F 47.7 °F 100% 30.10 in 5.0 mi South 3.5 mph - N/A   Mostly Cloudy
1:15 AM 47.7 °F 47.7 °F 100% 30.10 in 4.0 mi South 3.5 mph - N/A   Overcast
1:35 AM 47.5 °F 47.5 °F 100% 30.10 in 5.0 mi Calm Calm - N/A   Overcast
1:55 AM 47.7 °F 47.7 °F 100% 30.10 in 7.0 mi South 3.5 mph - N/A   Overcast
2:15 AM 48.2 °F 48.2 °F 100% 30.10 in 7.0 mi South 3.5 mph - N/A   Overcast
2:35 AM 48.6 °F 48.6 °F 100% 30.11 in 7.0 mi SSW 3.5 mph - N/A   Overcast
2:55 AM 48.7 °F 48.7 °F 100% 30.11 in 7.0 mi SSW 4.6 mph - N/A   Overcast
3:15 AM 48.7 °F 48.7 °F 100% 30.10 in 7.0 mi South 4.6 mph - N/A   Overcast
3:35 AM 48.7 °F 48.7 °F 100% 30.11 in 5.0 mi South 3.5 mph - N/A   Overcast
3:55 AM 48.6 °F 48.6 °F 100% 30.11 in 4.0 mi South 3.5 mph - N/A   Overcast
4:15 AM 48.4 °F 48.4 °F 100% 30.10 in 3.0 mi South 3.5 mph - N/A   Overcast
4:35 AM 48.6 °F 48.6 °F 100% 30.10 in 2.5 mi South 3.5 mph - N/A   Overcast
4:55 AM 48.7 °F 48.7 °F 100% 30.10 in 2.5 mi South 3.5 mph - N/A   Overcast
5:15 AM 49.1 °F 49.1 °F 100% 30.10 in 2.0 mi South 3.5 mph - N/A   Overcast
5:35 AM 49.1 °F 49.1 °F 100% 30.12 in 2.0 mi SW 3.5 mph - N/A   Overcast
5:55 AM 49.3 °F 49.3 °F 100% 30.12 in 1.5 mi South 3.5 mph - N/A   Overcast
6:15 AM 49.6 °F 49.6 °F 100% 30.12 in 2.5 mi South 3.5 mph - N/A   Overcast
6:35 AM 50.0 °F 50.0 °F 100% 30.12 in 1.5 mi South 4.6 mph - N/A   Overcast
6:55 AM 50.2 °F 50.2 °F 100% 30.12 in 0.5 mi South 4.6 mph - N/A Fog Fog
7:15 AM 50.5 °F 50.5 °F 100% 30.13 in 0.5 mi South 3.5 mph - N/A Fog Fog
7:35 AM 50.9 °F 50.9 °F 100% 30.13 in 0.8 mi South 5.8 mph - N/A   Overcast
7:55 AM 51.4 °F 51.4 °F 100% 30.14 in 1.5 mi South 3.5 mph - N/A   Overcast
8:15 AM 52.0 °F 52.0 °F 100% 30.14 in 1.8 mi South 5.8 mph - N/A   Overcast
8:35 AM 52.9 °F 52.9 °F 100% 30.13 in 2.5 mi South 4.6 mph - N/A   Overcast
8:55 AM 53.8 °F 53.8 °F 100% 30.13 in 4.0 mi South 6.9 mph - N/A   Overcast
9:15 AM 54.5 °F 54.5 °F 100% 30.12 in 4.0 mi South 6.9 mph - N/A   Overcast
9:35 AM 55.0 °F 55.0 °F 100% 30.12 in 4.0 mi SSE 9.2 mph - N/A   Overcast
9:55 AM 55.8 °F 55.6 °F 99% 30.12 in 4.0 mi South 5.8 mph - N/A   Overcast
10:15 AM 56.7 °F 54.9 °F 94% 30.11 in 5.0 mi South 9.2 mph - N/A   Overcast
10:35 AM 57.6 °F 54.5 °F 90% 30.10 in 7.0 mi South 6.9 mph - N/A   Overcast
10:55 AM 59.2 °F 54.7 °F 85% 30.09 in 10.0 mi SSE 6.9 mph - N/A   Overcast
11:15 AM 60.1 °F 54.9 °F 83% 30.08 in 10.0 mi South 5.8 mph - N/A   Overcast
11:35 AM 60.4 °F 54.7 °F 81% 30.07 in 10.0 mi South 6.9 mph - N/A   Overcast
11:55 AM 60.8 °F 54.5 °F 80% 30.07 in 10.0 mi SSW 9.2 mph - N/A   Overcast
12:15 PM 60.8 °F 54.5 °F 80% 30.06 in 10.0 mi SSW 5.8 mph - N/A   Overcast
12:35 PM 61.3 °F 54.9 °F 79% 30.05 in 10.0 mi South 5.8 mph - N/A   Overcast
12:55 PM 61.7 °F 55.2 °F 79% 30.04 in 10.0 mi South 8.1 mph - N/A   Overcast
1:15 PM 62.2 °F 55.6 °F 79% 30.03 in 10.0 mi South 10.4 mph 16.1 mph N/A   Overcast
1:35 PM 62.2 °F 55.6 °F 79% 30.02 in 10.0 mi South 8.1 mph - N/A   Overcast
1:55 PM 62.2 °F 55.6 °F 79% 30.01 in 10.0 mi South 9.2 mph - N/A   Overcast
2:15 PM 62.8 °F 55.6 °F 77% 30.01 in 10.0 mi South 9.2 mph - N/A   Overcast
2:35 PM 63.0 °F 55.9 °F 78% 30.00 in 10.0 mi South 6.9 mph - N/A   Overcast
2:55 PM 62.8 °F 56.5 °F 80% 30.01 in 10.0 mi South 5.8 mph - N/A   Overcast
3:15 PM 62.2 °F 56.5 °F 81% 30.01 in 5.0 mi SSW 3.5 mph - N/A   Drizzle
3:35 PM 61.2 °F 58.5 °F 91% 30.01 in 7.0 mi SSE 3.5 mph - N/A   Light Drizzle
3:55 PM 61.0 °F 61.0 °F 100% 30.00 in 10.0 mi SSE 6.9 mph - N/A   Overcast
4:15 PM 61.2 °F 60.6 °F 98% 29.99 in 10.0 mi SSE 6.9 mph - N/A   Overcast
4:35 PM 61.2 °F 59.7 °F 95% 29.99 in 10.0 mi SSE 5.8 mph - N/A   Overcast
4:55 PM 61.2 °F 58.3 °F 90% 29.99 in 10.0 mi SSE 6.9 mph - N/A   Overcast
5:15 PM 61.0 °F 57.7 °F 89% 29.99 in 10.0 mi SSE 9.2 mph 16.1 mph N/A   Overcast
5:35 PM 60.8 °F 57.0 °F 87% 30.00 in 10.0 mi South 9.2 mph 16.1 mph N/A   Overcast
5:55 PM 60.8 °F 56.7 °F 86% 30.00 in 10.0 mi South 8.1 mph - N/A   Overcast
6:15 PM 60.8 °F 56.3 °F 85% 29.99 in 10.0 mi South 9.2 mph 17.3 mph N/A   Overcast
6:35 PM 60.4 °F 56.1 °F 86% 29.99 in 10.0 mi SSE 10.4 mph 17.3 mph N/A   Overcast
6:55 PM 60.3 °F 55.8 °F 85% 29.98 in 10.0 mi SSE 10.4 mph 17.3 mph N/A   Overcast
7:15 PM 60.1 °F 55.6 °F 85% 29.98 in 10.0 mi South 10.4 mph 20.7 mph N/A   Mostly Cloudy
7:35 PM 60.1 °F 55.6 °F 85% 29.98 in 10.0 mi South 11.5 mph 19.6 mph N/A   Overcast
7:55 PM 60.3 °F 55.4 °F 84% 29.98 in 10.0 mi South 12.7 mph 21.9 mph N/A   Mostly Cloudy
8:15 PM 60.1 °F 55.2 °F 84% 29.98 in 10.0 mi South 11.5 mph 17.3 mph N/A   Scattered Clouds
8:35 PM 60.1 °F 55.0 °F 83% 29.98 in 10.0 mi South 10.4 mph 17.3 mph N/A   Mostly Cloudy
8:55 PM 60.1 °F 54.9 °F 83% 29.98 in 10.0 mi South 9.2 mph - N/A   Mostly Cloudy
9:15 PM 59.7 °F 54.7 °F 83% 29.98 in 10.0 mi South 8.1 mph - N/A   Mostly Cloudy
9:35 PM 59.4 °F 54.5 °F 84% 29.97 in 10.0 mi South 9.2 mph - N/A   Scattered Clouds
9:55 PM 59.2 °F 54.3 °F 84% 29.97 in 10.0 mi South 9.2 mph - N/A   Scattered Clouds
10:15 PM 59.2 °F 54.3 °F 84% 29.97 in 10.0 mi South 9.2 mph 17.3 mph N/A   Scattered Clouds
10:35 PM 59.2 °F 54.1 °F 83% 29.97 in 10.0 mi South 10.4 mph - N/A   Mostly Cloudy
10:55 PM 59.9 °F 54.5 °F 82% 29.96 in 10.0 mi South 10.4 mph 17.3 mph N/A   Overcast
11:15 PM 60.8 °F 54.3 °F 79% 29.96 in 10.0 mi South 10.4 mph 16.1 mph N/A   Overcast
11:35 PM 61.0 °F 54.3 °F 79% 29.95 in 10.0 mi South 9.2 mph - N/A   Overcast
11:55 PM 61.3 °F 54.5 °F 78% 29.95 in 10.0 mi South 10.4 mph - N/A   Mostly Cloudy